FW2982 Weather Reports


Display with metric or nautical units.
time (UTC)temp
F
wind
direction
speed
MPH
gust
MPH
rain 1hr
in
rain 24hr
in
rain mn
in
humidity
%
barometer
mb
20260902072003 73 251 0.0 0.0 0.00 0.00 0.00 94 1015.0
20260902071503 73 251 0.0 0.0 0.00 0.00 0.00 94 1014.9
20260902070933 73 251 0.0 0.0 0.00 0.00 0.00 94 1014.9
20260902070433 73 251 0.0 0.0 0.00 0.00 0.00 94 1014.9
20260902065933 73 251 0.0 0.0 0.00 0.00 0.00 94 1014.8
20260902065431 73 251 0.0 0.0 0.00 0.00 0.00 94 1014.9
20260902064931 73 252 0.0 0.0 0.00 0.00 0.00 94 1014.9
20260902064431 73 251 0.0 0.0 0.00 0.00 0.00 94 1014.8
20260902063933 73 251 0.0 0.0 0.00 0.00 0.00 94 1014.7
20260902063717 73 251 0.0 0.0 0.00 0.00 0.00 93 1014.8
20260902062931 74 251 0.0 0.0 0.00 0.00 0.00 94 1014.9
20260902062432 74 251 0.0 1.0 0.00 0.00 0.00 93 1014.9
20260902062238 74 251 0.0 0.0 0.00 0.00 0.00 93 1014.8
20260902061949 74 251 0.0 1.0 0.00 0.00 0.00 93 1014.8
20260902060912 74 251 0.0 0.0 0.00 0.00 0.00 94 1014.9
20260902060412 74 251 0.0 0.0 0.00 0.00 0.00 94 1014.8
20260902055912 74 251 0.0 1.0 0.00 0.00 0.00 94 1014.8
20260902055411 74 251 0.0 1.0 0.00 0.00 0.00 94 1014.9
20260902055153 74 251 0.0 1.0 0.00 0.00 0.00 93 1014.9
20260902054411 74 251 0.0 2.0 0.00 0.00 0.00 93 1014.9
20260902053912 74 251 1.0 2.0 0.00 0.00 0.00 93 1014.7
20260902053412 74 264 0.0 2.0 0.00 0.00 0.00 94 1014.8
20260902052911 74 264 0.0 3.0 0.00 0.00 0.00 93 1014.9
20260902052404 74 264 1.0 3.0 0.00 0.00 0.00 93 1014.9
20260902051903 74 262 0.0 0.0 0.00 0.00 0.00 93 1014.7
20260902051403 74 262 0.0 0.0 0.00 0.00 0.00 93 1014.7
20260902050901 74 262 0.0 0.0 0.00 0.00 0.00 93 1014.7
20260902050404 74 262 0.0 0.0 0.00 0.00 0.00 93 1014.7
20260902045904 74 262 0.0 0.0 0.00 0.00 0.00 93 1014.7
20260902045401 74 262 0.0 0.0 0.00 0.00 0.00 93 1014.6
20260902045144 74 262 0.0 0.0 0.00 0.00 0.00 93 1014.6
20260902044402 75 262 0.0 0.0 0.00 0.00 0.00 93 1014.5
20260902044138 75 262 0.0 0.0 0.00 0.00 0.00 93 1014.5
20260902043359 75 262 0.0 0.0 0.00 0.00 0.00 93 1014.4
20260902042858 75 262 0.0 0.0 0.00 0.00 0.00 93 1014.4
20260902042345 75 262 0.0 0.0 0.00 0.00 0.00 93 1014.3
20260902041845 75 262 0.0 0.0 0.00 0.00 0.00 93 1014.2
20260902041343 75 262 0.0 0.0 0.00 0.00 0.00 93 1014.2
20260902040844 75 262 0.0 0.0 0.00 0.00 0.00 92 1014.1
20260902040342 76 262 0.0 0.0 0.00 0.00 0.00 92 1014.1
20260902035839 76 262 0.0 0.0 0.00 0.00 0.00 92 1014.0
20260902035339 76 262 0.0 0.0 0.00 0.00 0.00 92 1014.0
20260902034838 76 262 0.0 0.0 0.00 0.00 0.00 92 1014.0
20260902034339 76 262 0.0 0.0 0.00 0.00 0.00 91 1014.0
20260902033831 76 262 0.0 0.0 0.00 0.00 0.00 91 1013.9
20260902033333 76 262 0.0 0.0 0.00 0.00 0.00 91 1013.9
20260902032831 77 262 0.0 0.0 0.00 0.00 0.00 91 1013.7
20260902032330 77 262 0.0 0.0 0.00 0.00 0.00 90 1013.7
20260902031817 77 262 0.0 0.0 0.00 0.00 0.00 90 1013.6
20260902031316 77 262 0.0 0.0 0.00 0.00 0.00 90 1013.5
20260902030812 77 262 0.0 0.0 0.00 0.00 0.00 90 1013.5
20260902030310 78 262 0.0 0.0 0.00 0.00 0.00 90 1013.3
20260902025807 78 262 0.0 0.0 0.00 0.00 0.00 89 1013.3
20260902025307 78 262 0.0 0.0 0.00 0.00 0.00 89 1013.3
20260902025048 78 262 0.0 0.0 0.00 0.00 0.00 88 1013.3
20260902024548 78 262 0.0 0.0 0.00 0.00 0.00 88 1013.4
20260902023809 78 262 0.0 0.0 0.00 0.00 0.00 87 1013.5
20260902023307 79 262 0.0 0.0 0.00 0.00 0.00 88 1013.6
20260902022808 79 262 0.0 0.0 0.00 0.00 0.00 86 1013.6
20260902022327 80 262 0.0 0.0 0.00 0.00 0.00 84 1013.8
20260902022319 79 262 0.0 0.0 0.00 0.00 0.00 84 1013.7
20260902021309 79 262 0.0 1.0 0.00 0.00 0.00 86 1013.8
20260902020807 79 262 0.0 1.0 0.00 0.00 0.00 88 1013.6
20260902020307 79 262 0.0 1.0 0.00 0.00 0.00 87 1013.6
20260902020045 79 262 0.0 1.0 0.00 0.00 0.00 87 1013.4
20260902015307 79 258 0.0 1.0 0.00 0.00 0.00 88 1013.4
20260902014806 79 258 0.0 2.0 0.00 0.00 0.00 89 1013.3
20260902014305 79 258 1.0 2.0 0.00 0.00 0.00 90 1013.3
20260902013807 80 258 0.0 0.0 0.00 0.00 0.00 89 1013.3
20260902013546 80 258 0.0 0.0 0.00 0.00 0.00 89 1013.3
20260902012805 80 258 0.0 0.0 0.00 0.00 0.00 89 1013.3
20260902012309 80 258 0.0 0.0 0.00 0.00 0.00 89 1013.3
20260902011805 80 258 0.0 0.0 0.00 0.00 0.00 89 1013.3
20260902011306 80 258 0.0 0.0 0.00 0.00 0.00 89 1013.2
20260902011044 80 258 0.0 1.0 0.00 0.00 0.00 88 1013.1
20260902010303 80 258 0.0 1.0 0.00 0.00 0.00 89 1013.1
20260902005805 80 258 0.0 0.0 0.00 0.00 0.00 89 1012.9
20260902005306 80 258 0.0 0.0 0.00 0.00 0.00 90 1012.8
20260902004804 80 258 0.0 0.0 0.00 0.00 0.00 89 1012.9
20260902004305 81 258 0.0 0.0 0.00 0.00 0.00 89 1012.7
20260902003804 81 258 0.0 0.0 0.00 0.00 0.00 89 1012.5
20260902003544 81 258 0.0 0.0 0.00 0.00 0.00 88 1012.5
20260902002803 82 258 0.0 0.0 0.00 0.00 0.00 87 1012.4
20260902002306 82 258 0.0 0.0 0.00 0.00 0.00 84 1012.3
20260902001804 83 258 0.0 0.0 0.00 0.00 0.00 83 1012.1
20260902001303 83 258 0.0 0.0 0.00 0.00 0.00 82 1011.9
20260902000803 83 258 0.0 1.0 0.00 0.00 0.00 82 1011.9
20260902000304 83 258 0.0 1.0 0.00 0.00 0.00 83 1011.9
20260901235804 84 258 0.0 0.0 0.00 0.00 0.00 83 1011.8
20260901235543 84 258 0.0 0.0 0.00 0.00 0.00 83 1011.8
20260901234803 84 258 0.0 1.0 0.00 0.00 0.00 84 1011.8
20260901234303 83 258 0.0 1.0 0.00 0.00 0.00 84 1011.8
20260901233803 84 258 0.0 1.0 0.00 0.00 0.00 84 1011.8
20260901233303 84 258 0.0 0.0 0.00 0.00 0.00 83 1011.8
20260901232804 85 258 0.0 0.0 0.00 0.00 0.00 83 1012.0
20260901232306 85 258 0.0 0.0 0.00 0.00 0.00 82 1012.0
20260901231804 85 258 0.0 0.0 0.00 0.00 0.00 81 1012.0
20260901231303 85 258 0.0 0.0 0.00 0.00 0.00 80 1012.0
20260901231042 85 258 0.0 0.0 0.00 0.00 0.00 80 1011.9
20260901230304 86 258 0.0 0.0 0.00 0.00 0.00 80 1012.0
20260901225739 86 258 0.0 0.0 0.00 0.00 0.00 79 1012.1
20260901225238 86 258 0.0 0.0 0.00 0.00 0.00 78 1012.1
20260901224739 86 258 0.0 0.0 0.00 0.00 0.00 78 1012.1
20260901224237 86 258 0.0 0.0 0.00 0.00 0.00 77 1012.1
20260901223734 87 258 0.0 0.0 0.00 0.00 0.00 77 1012.0
20260901223234 87 258 0.0 1.0 0.00 0.00 0.00 76 1012.0
20260901222732 87 258 0.0 2.0 0.00 0.00 0.00 75 1012.0
20260901222233 87 258 0.0 2.0 0.00 0.00 0.00 73 1012.1
20260901221732 87 258 0.0 2.0 0.00 0.00 0.00 73 1012.1
20260901221233 87 282 0.0 0.0 0.00 0.00 0.00 74 1012.1
20260901220731 88 282 0.0 0.0 0.00 0.00 0.00 73 1012.0
20260901220232 88 282 0.0 1.0 0.00 0.00 0.00 72 1012.1
20260901215732 88 282 0.0 1.0 0.00 0.00 0.00 72 1012.1
20260901215233 89 282 0.0 0.0 0.00 0.00 0.00 71 1012.4
20260901215014 89 282 0.0 1.0 0.00 0.00 0.00 69 1012.4
20260901214505 90 282 0.0 2.0 0.00 0.00 0.00 70 1012.4
20260901213726 90 282 1.0 2.0 0.00 0.00 0.00 68 1012.3
20260901213227 91 224 0.0 1.0 0.00 0.00 0.00 68 1012.3
20260901212727 91 224 0.0 1.0 0.00 0.00 0.00 65 1012.4
20260901212504 92 282 0.0 2.0 0.00 0.00 0.00 65 1012.4
20260901211722 92 282 0.0 2.0 0.00 0.00 0.00 66 1012.4
20260901211222 92 285 0.0 1.0 0.00 0.00 0.00 66 1012.3
20260901210723 92 272 0.0 2.0 0.00 0.00 0.00 64 1012.3
20260901210447 93 268 1.0 2.0 0.00 0.00 0.00 63 1012.4
20260901205945 92 247 0.0 3.0 0.00 0.00 0.00 63 1012.4
20260901205208 92 247 0.0 3.0 0.00 0.00 0.00 63 1012.4
20260901204947 92 289 0.0 1.0 0.00 0.00 0.00 67 1012.5
20260901204206 92 289 0.0 3.0 0.00 0.00 0.00 63 1012.5
20260901203705 92 289 0.0 3.0 0.00 0.00 0.00 63 1012.4
20260901203202 92 285 0.0 3.0 0.00 0.00 0.00 62 1012.6
20260901202943 92 285 0.0 3.0 0.00 0.00 0.00 62 1012.6
20260901202204 93 355 1.0 2.0 0.00 0.00 0.00 63 1012.6
20260901201942 92 6 0.0 2.0 0.00 0.00 0.00 65 1012.6
20260901201441 92 234 0.0 3.0 0.00 0.00 0.00 65 1012.7
20260901200702 91 234 0.0 3.0 0.00 0.00 0.00 66 1012.8
20260901200202 91 278 0.0 0.0 0.00 0.00 0.00 68 1012.9
20260901195704 91 278 0.0 2.0 0.00 0.00 0.00 65 1012.9
20260901195203 92 278 0.0 2.0 0.00 0.00 0.00 64 1013.0
20260901194702 93 24 1.0 6.0 0.00 0.00 0.00 62 1013.0
20260901194159 93 314 1.0 6.0 0.00 0.00 0.00 64 1013.1
20260901193657 93 319 1.0 2.0 0.00 0.00 0.00 70 1013.2
20260901193158 92 321 0.0 2.0 0.00 0.00 0.00 69 1013.2
20260901192657 91 268 0.0 1.0 0.00 0.00 0.00 70 1013.3
20260901192132 91 268 0.0 1.0 0.00 0.00 0.00 71 1013.3
20260901191630 90 268 0.0 2.0 0.00 0.00 0.00 71 1013.4
20260901191131 91 268 0.0 2.0 0.00 0.00 0.00 70 1013.6
20260901190632 91 288 0.0 4.0 0.00 0.00 0.00 67 1013.6
20260901190132 92 285 1.0 4.0 0.00 0.00 0.00 65 1013.8
20260901185632 93 302 1.0 3.0 0.00 0.00 0.00 63 1013.9
20260901185132 93 258 0.0 3.0 0.00 0.00 0.00 61 1013.9
20260901184631 94 258 1.0 3.0 0.00 0.00 0.00 60 1013.9
20260901184131 96 292 1.0 5.0 0.00 0.00 0.00 58 1013.8
20260901183631 95 279 2.0 5.0 0.00 0.00 0.00 59 1013.9
20260901183132 96 0 1.0 4.0 0.00 0.00 0.00 58 1013.7
20260901182632 96 28 2.0 4.0 0.00 0.00 0.00 60 1013.8
20260901182131 95 357 0.0 3.0 0.00 0.00 0.00 59 1013.7
20260901181633 95 254 2.0 3.0 0.00 0.00 0.00 59 1013.5
20260901181131 94 336 1.0 3.0 0.00 0.00 0.00 58 1013.6
20260901180630 95 302 1.0 3.0 0.00 0.00 0.00 57 1013.7
20260901180131 94 182 2.0 3.0 0.00 0.00 0.00 58 1013.7
20260901175631 95 78 1.0 3.0 0.00 0.00 0.00 58 1013.7
20260901175132 95 247 2.0 3.0 0.00 0.00 0.00 57 1013.7
20260901174938 94 227 1.0 5.0 0.00 0.00 0.00 59 1013.8
20260901174932 94 324 1.0 4.0 0.00 0.00 0.00 62 1013.7
20260901173631 94 319 2.0 5.0 0.00 0.00 0.00 62 1013.7
20260901173131 94 344 1.0 3.0 0.00 0.00 0.00 61 1013.7
20260901172631 94 321 2.0 4.0 0.00 0.00 0.00 60 1013.7
20260901172118 95 202 2.0 4.0 0.00 0.00 0.00 59 1013.7
20260901171858 94 275 2.0 4.0 0.00 0.00 0.00 61 1013.7
20260901171117 94 195 1.0 4.0 0.00 0.00 0.00 61 1013.7
20260901170616 94 28 2.0 4.0 0.00 0.00 0.00 61 1013.7
20260901170112 94 251 1.0 4.0 0.00 0.00 0.00 62 1013.8
20260901165607 95 343 2.0 4.0 0.00 0.00 0.00 62 1014.0
20260901165104 94 341 2.0 5.0 0.00 0.00 0.00 63 1014.1
20260901164602 94 142 1.0 5.0 0.00 0.00 0.00 62 1014.1
20260901164101 94 353 1.0 3.0 0.00 0.00 0.00 64 1014.2
20260901163839 93 296 2.0 3.0 0.00 0.00 0.00 65 1014.1
20260901163103 91 276 1.0 3.0 0.00 0.00 0.00 66 1014.2
20260901162837 92 276 1.0 6.0 0.00 0.00 0.00 64 1014.3
20260901162058 93 0 1.0 6.0 0.00 0.00 0.00 63 1014.2
20260901161558 94 231 1.0 5.0 0.00 0.00 0.00 63 1014.3
20260901161342 95 336 1.0 5.0 0.00 0.00 0.00 61 1014.4
20260901160559 95 302 1.0 3.0 0.00 0.00 0.00 62 1014.4
20260901160117 96 331 2.0 4.0 0.00 0.00 0.00 61 1014.5
20260901160110 95 340 1.0 4.0 0.00 0.00 0.00 61 1014.4
20260901155053 95 288 1.0 4.0 0.00 0.00 0.00 61 1014.5
20260901154555 94 1 2.0 5.0 0.00 0.00 0.00 61 1014.6
20260901154052 96 357 2.0 3.0 0.00 0.00 0.00 61 1014.7
20260901153831 95 272 2.0 3.0 0.00 0.00 0.00 63 1014.8
20260901153117 95 141 0.0 1.0 0.00 0.00 0.00 61 1014.8
20260901153109 94 157 0.0 1.0 0.00 0.00 0.00 65 1014.8
20260901152053 94 217 0.0 2.0 0.00 0.00 0.00 63 1014.9
20260901151554 94 193 1.0 2.0 0.00 0.00 0.00 63 1015.0
20260901151053 94 288 0.0 2.0 0.00 0.00 0.00 63 1015.0
20260901150552 94 268 1.0 3.0 0.00 0.00 0.00 64 1015.0
20260901150051 93 14 1.0 3.0 0.00 0.00 0.00 65 1014.9
20260901145552 93 337 0.0 0.0 0.00 0.00 0.00 65 1015.0
20260901145052 91 333 0.0 1.0 0.00 0.00 0.00 67 1015.0
20260901144552 90 344 0.0 1.0 0.00 0.00 0.00 68 1015.1
20260901144051 91 344 0.0 2.0 0.00 0.00 0.00 67 1015.1
20260901143552 92 340 0.0 2.0 0.00 0.00 0.00 64 1015.1
20260901143051 93 357 0.0 4.0 0.00 0.00 0.00 64 1015.1
20260901142551 93 357 2.0 4.0 0.00 0.00 0.00 64 1015.1
20260901142352 91 298 0.0 0.0 0.00 0.00 0.00 68 1015.1
20260901142348 92 305 0.0 3.0 0.00 0.00 0.00 68 1015.1
20260901141050 90 298 0.0 0.0 0.00 0.00 0.00 67 1015.1
20260901140551 91 259 0.0 0.0 0.00 0.00 0.00 66 1015.1
20260901140333 91 307 0.0 0.0 0.00 0.00 0.00 66 1015.0
20260901135829 90 203 0.0 0.0 0.00 0.00 0.00 67 1015.2
20260901135050 91 258 0.0 0.0 0.00 0.00 0.00 68 1015.1
20260901134829 90 258 0.0 0.0 0.00 0.00 0.00 70 1015.0
20260901134051 90 258 0.0 0.0 0.00 0.00 0.00 69 1015.1
20260901133551 90 16 0.0 0.0 0.00 0.00 0.00 72 1015.1
20260901133050 89 62 0.0 0.0 0.00 0.00 0.00 73 1015.1
20260901132827 88 62 0.0 0.0 0.00 0.00 0.00 75 1015.2
20260901132049 87 62 0.0 0.0 0.00 0.00 0.00 77 1015.1
20260901131550 87 62 0.0 0.0 0.00 0.00 0.00 77 1015.2
20260901131049 85 62 0.0 0.0 0.00 0.00 0.00 79 1015.3
20260901130550 86 62 0.0 0.0 0.00 0.00 0.00 79 1015.2
20260901130048 84 62 0.0 0.0 0.00 0.00 0.00 83 1015.4
20260901125548 78 62 0.0 0.0 0.00 0.00 0.00 96 1015.4
20260901125045 78 62 0.0 0.0 0.00 0.00 0.00 96 1015.4
20260901124827 78 62 0.0 0.0 0.00 0.00 0.00 96 1015.4
20260901124044 76 62 0.0 0.0 0.00 0.00 0.00 97 1015.5
20260901123545 76 62 0.0 0.0 0.00 0.00 0.00 97 1015.5
20260901123045 75 62 0.0 0.0 0.00 0.00 0.00 97 1015.5
20260901122544 75 62 0.0 0.0 0.00 0.00 0.00 97 1015.6
20260901122044 75 62 0.0 0.0 0.00 0.00 0.00 97 1015.6
20260901121545 74 62 0.0 0.0 0.00 0.00 0.00 97 1015.6
20260901121325 74 62 0.0 0.0 0.00 0.00 0.00 97 1015.5
20260901120544 74 62 0.0 0.0 0.00 0.00 0.00 97 1015.4
20260901120042 74 62 0.0 0.0 0.00 0.00 0.00 97 1015.3
20260901115545 74 62 0.0 0.0 0.00 0.00 0.00 97 1015.4
20260901115043 74 62 0.0 0.0 0.00 0.00 0.00 97 1015.4
20260901114821 74 62 0.0 0.0 0.00 0.00 0.00 97 1015.2
20260901114042 74 62 0.0 0.0 0.00 0.00 0.00 97 1015.1
20260901113543 73 62 0.0 0.0 0.00 0.00 0.00 97 1015.1
20260901113042 73 62 0.0 0.0 0.00 0.00 0.00 97 1015.1
20260901112542 73 62 0.0 0.0 0.00 0.00 0.00 97 1014.8
20260901112043 73 62 0.0 0.0 0.00 0.00 0.00 97 1014.9
20260901111542 73 62 0.0 0.0 0.00 0.00 0.00 97 1014.9
20260901111042 73 62 0.0 0.0 0.00 0.00 0.00 97 1014.9
20260901110542 73 62 0.0 0.0 0.00 0.00 0.00 97 1014.9
20260901110042 72 62 0.0 0.0 0.00 0.00 0.00 97 1014.9
20260901105538 73 62 0.0 0.0 0.00 0.00 0.00 97 1014.9
20260901105036 73 62 0.0 0.0 0.00 0.00 0.00 97 1014.9
20260901104535 73 62 0.0 0.0 0.00 0.00 0.00 97 1014.9
20260901104032 73 62 0.0 0.0 0.00 0.00 0.00 97 1014.8
20260901103531 73 62 0.0 0.0 0.00 0.00 0.00 97 1014.8
20260901103032 73 62 0.0 0.0 0.00 0.00 0.00 97 1014.7
20260901102511 73 62 0.0 0.0 0.00 0.00 0.00 97 1014.7
20260901102243 73 62 0.0 0.0 0.00 0.00 0.00 97 1014.7
20260901101504 73 62 0.0 0.0 0.00 0.00 0.00 97 1014.6
20260901101004 73 62 0.0 0.0 0.00 0.00 0.00 97 1014.6
20260901100503 73 62 0.0 0.0 0.00 0.00 0.00 97 1014.6
20260901100004 73 62 0.0 0.0 0.00 0.00 0.00 97 1014.6
20260901095504 73 62 0.0 0.0 0.00 0.00 0.00 97 1014.5
20260901095003 73 62 0.0 0.0 0.00 0.00 0.00 97 1014.6
20260901094504 73 62 0.0 0.0 0.00 0.00 0.00 97 1014.6
20260901094004 73 62 0.0 0.0 0.00 0.00 0.00 97 1014.6
20260901093505 73 62 0.0 0.0 0.00 0.00 0.00 97 1014.6
20260901093003 73 62 0.0 0.0 0.00 0.00 0.00 97 1014.7
20260901092503 73 62 0.0 0.0 0.00 0.00 0.00 97 1014.7
20260901092305 73 62 0.0 0.0 0.00 0.00 0.00 97 1014.8
20260901092017 73 62 0.0 0.0 0.00 0.00 0.00 97 1014.7
20260901091002 73 62 0.0 0.0 0.00 0.00 0.00 97 1014.9
20260901090503 73 62 0.0 0.0 0.00 0.00 0.00 97 1014.8
20260901090004 73 62 0.0 0.0 0.00 0.00 0.00 97 1014.8
20260901085505 73 62 0.0 0.0 0.00 0.00 0.00 97 1014.8
20260901085003 73 62 0.0 0.0 0.00 0.00 0.00 97 1014.8
20260901084503 73 62 0.0 0.0 0.00 0.00 0.00 97 1014.9
20260901084002 73 62 0.0 0.0 0.00 0.00 0.00 97 1014.9
20260901083503 73 62 0.0 0.0 0.00 0.00 0.00 97 1014.9
20260901083002 73 62 0.0 0.0 0.00 0.00 0.00 97 1014.9
20260901082506 73 62 0.0 0.0 0.00 0.00 0.00 97 1014.9
20260901082002 73 62 0.0 0.0 0.00 0.00 0.00 97 1014.9
20260901081502 73 62 0.0 0.0 0.00 0.00 0.00 97 1014.8
20260901081002 73 62 0.0 0.0 0.00 0.01 0.00 97 1014.7
20260901080502 73 62 0.0 0.0 0.00 0.01 0.00 97 1014.8
20260901080241 73 62 0.0 0.0 0.00 0.01 0.00 97 1014.8
20260901075502 73 62 0.0 0.0 0.00 0.01 0.00 96 1014.9
20260901075002 73 62 0.0 0.0 0.00 0.01 0.00 96 1014.9
20260901074502 73 62 0.0 0.0 0.00 0.01 0.00 96 1014.9
20260901074002 73 62 0.0 0.0 0.00 0.01 0.00 96 1015.0
20260901073501 73 62 0.0 0.0 0.00 0.01 0.00 96 1015.0
20260901073003 73 62 0.0 0.0 0.00 0.01 0.00 96 1015.0
20260901072741 73 62 0.0 0.0 0.00 0.01 0.00 97 1015.1